Location: *
(51.1248°S, 108.4023°W)
Time: 22:18:21
(UTC+00:00)

Cosmos 2278 Rocket - Pass Details

Date: 30 October 2021
Orbit: 841 x 845 km, 71.0° (Epoch: 30 November)

Event Time Altitude Azimuth Distance (km) Brightness Sun altitude
Rises 08:28:04 0° 260° (W) 3,423 5.2 -22.0°
Reaches altitude 10° 08:31:51 10° 235° (SW) 2,493 4.8 -21.8°
Maximum altitude 08:34:49 14° 203° (SSW) 2,212 4.9 -21.6°
Drops below altitude 10° 08:37:47 10° 172° (S) 2,500 5.7 -21.4°
Sets 08:41:36 0° 147° (SSE) 3,439 6.9 -21.1°
